TimeCST,TemperatureF,Dew PointF,Humidity,Sea Level PressureIn,VisibilityMPH,Wind Direction,Wind SpeedMPH,Gust SpeedMPH,PrecipitationIn,Events,Conditions,WindDirDegrees,DateUTC
12:35 AM,39.2,26.6,61,30.09,10.0,East,6.9,-,N/A,,Mostly Cloudy,100,2013-02-10 06:35:00
12:55 AM,39.2,26.6,61,30.09,10.0,East,6.9,-,N/A,,Mostly Cloudy,90,2013-02-10 06:55:00
1:15 AM,39.2,26.6,61,30.08,10.0,East,5.8,-,N/A,,Scattered Clouds,90,2013-02-10 07:15:00
1:35 AM,39.2,26.6,61,30.08,10.0,East,4.6,-,N/A,,Clear,100,2013-02-10 07:35:00
1:55 AM,39.2,26.6,61,30.08,10.0,East,4.6,-,N/A,,Partly Cloudy,100,2013-02-10 07:55:00
2:15 AM,39.2,26.6,61,30.08,10.0,ESE,3.5,-,N/A,,Mostly Cloudy,120,2013-02-10 08:15:00
2:35 AM,41.0,26.6,57,30.07,10.0,ESE,4.6,-,N/A,,Overcast,110,2013-02-10 08:35:00
2:55 AM,41.0,26.6,57,30.06,10.0,ESE,4.6,-,N/A,,Overcast,120,2013-02-10 08:55:00
3:15 AM,42.8,26.6,53,30.06,10.0,SE,6.9,-,N/A,,Overcast,130,2013-02-10 09:15:00
3:35 AM,42.8,26.6,53,30.05,10.0,SSE,10.4,-,N/A,,Overcast,150,2013-02-10 09:35:00
3:55 AM,42.8,28.4,57,30.05,10.0,SE,8.1,-,N/A,,Overcast,140,2013-02-10 09:55:00
4:15 AM,42.8,28.4,57,30.05,10.0,SE,8.1,-,N/A,,Mostly Cloudy,140,2013-02-10 10:15:00
4:35 AM,42.8,30.2,61,30.04,10.0,SE,8.1,-,0.01,,Overcast,140,2013-02-10 10:35:00
4:55 AM,42.8,30.2,61,30.02,10.0,SE,9.2,-,0.02,,Overcast,130,2013-02-10 10:55:00
5:55 AM,44.6,33.8,66,30.01,10.0,SE,10.4,-,0.01,,Overcast,130,2013-02-10 11:55:00
6:15 AM,44.6,33.8,66,29.99,10.0,ESE,9.2,-,N/A,,Overcast,120,2013-02-10 12:15:00
6:35 AM,44.6,33.8,66,30.00,10.0,SE,9.2,-,N/A,,Overcast,130,2013-02-10 12:35:00
6:55 AM,44.6,33.8,66,30.01,10.0,SSE,12.7,-,N/A,,Overcast,150,2013-02-10 12:55:00
7:15 AM,46.4,33.8,62,30.00,10.0,SE,10.4,-,N/A,,Overcast,140,2013-02-10 13:15:00
7:35 AM,46.4,33.8,62,30.00,10.0,SE,11.5,16.1,N/A,,Overcast,140,2013-02-10 13:35:00
8:15 AM,46.4,33.8,62,29.99,10.0,ESE,9.2,-,N/A,,Overcast,120,2013-02-10 14:15:00
8:35 AM,48.2,33.8,58,29.98,10.0,SE,10.4,-,N/A,,Mostly Cloudy,130,2013-02-10 14:35:00
8:55 AM,48.2,33.8,58,29.96,10.0,ESE,10.4,-,N/A,,Mostly Cloudy,120,2013-02-10 14:55:00
9:15 AM,50.0,33.8,54,29.95,10.0,SE,9.2,-,N/A,,Scattered Clouds,140,2013-02-10 15:15:00
9:35 AM,51.8,35.6,54,29.94,10.0,SE,11.5,-,N/A,,Mostly Cloudy,140,2013-02-10 15:35:00
10:15 AM,51.8,33.8,50,29.91,10.0,SE,15.0,23.0,N/A,,Scattered Clouds,140,2013-02-10 16:15:00
10:35 AM,51.8,33.8,50,29.89,10.0,SE,13.8,19.6,N/A,,Partly Cloudy,140,2013-02-10 16:35:00
10:55 AM,51.8,33.8,50,29.88,10.0,SE,16.1,-,N/A,,Scattered Clouds,140,2013-02-10 16:55:00
11:35 AM,48.2,35.6,62,29.92,9.0,SSW,5.8,-,N/A,Thunderstorm,Thunderstorm,200,2013-02-10 17:35:00
11:55 AM,48.2,37.4,66,29.92,10.0,South,10.4,-,0.17,,Overcast,180,2013-02-10 17:55:00
12:15 PM,48.2,37.4,66,29.92,9.0,SSW,10.4,20.7,0.10,,Mostly Cloudy,200,2013-02-10 18:15:00
12:35 PM,48.2,37.4,66,29.87,10.0,SSE,17.3,21.9,0.13,,Overcast,150,2013-02-10 18:35:00
12:55 PM,48.2,39.2,71,29.79,10.0,SE,27.6,35.7,0.16,,Overcast,140,2013-02-10 18:55:00
1:15 PM,-9999,-9999,N/A,29.78,10.0,SSE,28.8,43.7,N/A,,Overcast,160,2013-02-10 19:15:00
1:35 PM,-9999,-9999,N/A,29.76,10.0,SSE,25.3,35.7,N/A,,Scattered Clouds,160,2013-02-10 19:35:00
1:55 PM,51.8,41.0,67,29.79,10.0,SSE,17.3,25.3,N/A,,Scattered Clouds,160,2013-02-10 19:55:00
2:15 PM,51.8,41.0,67,29.78,10.0,SSE,15.0,24.2,N/A,,Mostly Cloudy,150,2013-02-10 20:15:00
2:35 PM,51.8,41.0,67,29.76,10.0,SSE,15.0,19.6,N/A,,Overcast,150,2013-02-10 20:35:00
3:15 PM,53.6,42.8,67,29.77,10.0,South,16.1,25.3,N/A,,Overcast,170,2013-02-10 21:15:00
3:35 PM,-9999,-9999,N/A,29.76,10.0,South,20.7,27.6,N/A,,Overcast,180,2013-02-10 21:35:00
3:55 PM,-9999,-9999,N/A,29.76,10.0,South,21.9,32.2,N/A,,Overcast,170,2013-02-10 21:55:00
4:15 PM,-9999,-9999,N/A,29.76,10.0,South,21.9,32.2,N/A,,Overcast,180,2013-02-10 22:15:00
4:35 PM,53.6,42.8,67,29.76,10.0,South,13.8,24.2,N/A,,Overcast,170,2013-02-10 22:35:00
4:55 PM,53.6,42.8,67,29.75,10.0,South,20.7,29.9,N/A,,Overcast,170,2013-02-10 22:55:00
5:15 PM,-9999,-9999,N/A,29.74,10.0,South,23.0,28.8,N/A,,Overcast,180,2013-02-10 23:15:00
5:35 PM,51.8,42.8,71,29.74,10.0,South,18.4,26.5,N/A,,Overcast,180,2013-02-10 23:35:00
5:55 PM,53.6,42.8,67,29.77,10.0,South,21.9,31.1,N/A,,Overcast,190,2013-02-10 23:55:00
6:15 PM,53.6,42.8,67,29.77,10.0,South,16.1,25.3,N/A,,Overcast,190,2013-02-11 00:15:00
6:35 PM,53.6,42.8,67,29.77,10.0,SSW,12.7,23.0,N/A,,Overcast,200,2013-02-11 00:35:00
6:55 PM,53.6,42.8,67,29.78,10.0,SSW,12.7,-,N/A,,Overcast,200,2013-02-11 00:55:00
7:15 PM,53.6,42.8,67,29.78,10.0,South,11.5,18.4,N/A,,Overcast,190,2013-02-11 01:15:00
7:35 PM,53.6,42.8,67,29.78,10.0,South,13.8,-,N/A,,Overcast,190,2013-02-11 01:35:00
8:15 PM,53.6,42.8,67,29.78,10.0,South,11.5,-,N/A,,Overcast,190,2013-02-11 02:15:00
8:35 PM,53.6,44.6,72,29.78,10.0,South,12.7,19.6,N/A,,Overcast,190,2013-02-11 02:35:00
8:55 PM,53.6,44.6,72,29.78,10.0,South,13.8,-,N/A,,Overcast,190,2013-02-11 02:55:00
9:15 PM,53.6,44.6,72,29.78,10.0,SSW,12.7,-,N/A,,Overcast,200,2013-02-11 03:15:00
9:35 PM,53.6,44.6,72,29.79,10.0,SSW,12.7,-,N/A,,Overcast,200,2013-02-11 03:35:00
9:55 PM,53.6,44.6,72,29.79,10.0,SSW,11.5,-,N/A,,Overcast,210,2013-02-11 03:55:00
10:15 PM,53.6,44.6,72,29.79,10.0,SSW,12.7,-,N/A,,Overcast,210,2013-02-11 04:15:00
10:35 PM,53.6,44.6,72,29.80,10.0,SW,13.8,19.6,N/A,,Overcast,220,2013-02-11 04:35:00
10:55 PM,53.6,44.6,72,29.80,10.0,SW,15.0,-,N/A,,Overcast,230,2013-02-11 04:55:00
11:15 PM,53.6,44.6,72,29.80,10.0,SSW,16.1,20.7,N/A,,Overcast,210,2013-02-11 05:15:00
11:35 PM,53.6,44.6,72,29.81,10.0,SW,16.1,-,N/A,,Partly Cloudy,220,2013-02-11 05:35:00
11:55 PM,53.6,44.6,72,29.82,10.0,SW,15.0,-,N/A,,Clear,220,2013-02-11 05:55:00